User: anonymous   Login
Location: Bergnerzell
(49.1816°N, 10.2565°E)
Time: 19:52:09
(UTC+00:00)
Language:

COSMOS 2406 - Orbit

View from above orbital plane
View from above orbital plane
View from above satellite
View from above satellite

Ground track
Ground track

The orbit data is extracted from the following two-line orbital elements,

1 28352U 04021A   24198.24457551  .00000147  00000-0  10603-3 0  9999
2 28352  70.9998 124.1415 0010271 145.8407 214.3377 14.11922266 35810
Epoch (UTC): 16 July 2024 05:52:11
Eccentricity: 0.0010271
inclination: 70.9998°
perigee height: 845 km
apogee height: 860 km
right ascension of ascending node: 124.1415°
argument of perigee: 145.8407°
revolutions per day: 14.11922266
mean anomaly at epoch: 214.3377°
orbit number at epoch: 3581

The dashed part of the orbit path shows where the satellite is in the earth's shadow,  

DLR